Regional Weather Roundup
Issued by NWS Cleveland, OH

Home | Current Version | Previous Version | Graphics & Text | Print | Product List | Glossary On
Versions: 1 2 3 4 5 6 7 8 9 10 11 12 13 14 15 16 17 18 19 20 21 22 23 24 25 26 27 28 29 30 31 32 33 34 35 36 37 38 39 40 41 42 43 44 45 46 47 48 49 50
740
ASUS41 KCLE 202312
RWRCLE
OHIO REGIONAL WEATHER ROUNDUP
NATIONAL WEATHER SERVICE WILMINGTON, OH
600 PM EST TUE FEB 20 2018

NOTE: "FAIR" INDICATES FEW OR NO CLOUDS BELOW 12,000 FEET WITH NO
SIGNIFICANT WEATHER AND/OR OBSTRUCTIONS TO VISIBILITY.

OHZ001>008-015>018-024>027-034-035-043-044-210000-
   NORTHWEST OHIO

CITY           SKY/WX    TMP DP  RH WIND       PRES   REMARKS
DEFIANCE       FAIR      68  58  70 S14G22    29.99R
FINDLAY        FAIR      69  55  60 S20       30.03R
TOLEDO EXPRESS FAIR      69  60  73 S12       30.00R
TOLEDO EXEC    FAIR      69  58  67 S15       30.01S
LIMA           FAIR      70  56  61 S13G22    30.05R
$$

OHZ009>014-019>023-028>033-038-089-210000-
   NORTHEAST OHIO

CITY           SKY/WX    TMP DP  RH WIND       PRES   REMARKS
CLE-HOPKINS    MOCLDY    71  56  58 S8        30.10S
CLE-LAKEFRONT  MOCLDY    72  55  55 S14G21    30.07R
CUY CO. ARPT   CLOUDY    72  57  60 S14       30.10R
LORAIN-ELYRIA  FAIR      69  53  56 S10       30.08R
ASHTABULA      CLOUDY    67  58  72 S8        30.12S
AKRON-CANTON   MOCLDY    70  54  56 S9        30.13S
WOOSTER        FAIR      68  54  60 SW8       30.13R
MANSFIELD      FAIR      69  55  60 S15       30.11R
YOUNGSTOWN     CLOUDY    71  54  54 S6        30.14R
$$

OHZ042-051>053-060>062-070>072-077>081-210000-
  SOUTHWEST OHIO

CITY           SKY/WX    TMP DP  RH WIND       PRES   REMARKS
CINC-COVINGTON MOCLDY    75  55  49 SW20G33   30.12R
CINC-LUNKEN    FAIR      75  54  47 SW17      30.12R
HAMILTON       FAIR      76  54  46 S14G25    30.11R
DAYTON         MOCLDY    73  55  53 S14G28    30.09S
WRIGHT-PAT AFB FAIR      74  54  48 S13       30.09R
DAYTON GENERAL FAIR      74  53  48 S15       30.10R
WILMINGTON     FAIR      71  55  56 S14       30.13R
$$

OHZ036-037-039>041-045>050-054>059-063>069-073>076-082>088-210000-
  CENTRAL AND SOUTHEAST OHIO

CITY           SKY/WX    TMP DP  RH WIND       PRES   REMARKS
COLUMBUS       CLOUDY    73  56  54 S10       30.13R
OSU AIRPORT    FAIR      73  57  57 S15       30.11R
BOLTON FIELD   CLEAR     72  55  56 S14       30.14R
RICKENBACK AFB FAIR      71  56  58 S12       30.13S
NEWARK         FAIR      72  54  53 S9        30.14R
MARION         FAIR      70  55  59 S15       30.09S
LANCASTER      FAIR      73  55  53 S9        30.16R
ZANESVILLE     FAIR      73  51  46 S7        30.16R
NEW PHILLY     FAIR      75  51  43 S7        30.15R
$$




USA.gov is the U.S. government's official web portal to all federal, state and local government web resources and services.